Location: Baix
(44.7118°N, 4.7648°E)
Time: 16:42:22
(UTC+00:00)

Cosmos 1340 Rocket - Pass Details

Date: 07 August 2020
Orbit: 530 x 558 km, 81.2° (Epoch: 22 September)

Event Time Altitude Azimuth Distance (km) Brightness Sun altitude
Exits shadow 03:31:13 15° 244° (WSW) 1,534 4.4 -10.5°
Maximum altitude 03:33:33 24° 289° (WNW) 1,165 4.2 -10.2°
Drops below altitude 10° 03:36:48 10° 344° (NNW) 1,810 5.7 -9.7°
Sets 03:39:18 0° 359° (N) 2,702 6.8 -9.4°
